Weather in Shuyskaya

Russia / Republic of Karelia     61°56′33″N   34°14′49″E
temp.,
°C
wind,
m/s
gust,
m/s
humid.,
%
clouds,
%
prec.,
mm/h
press.,
hPa
HPBL,
m
7 may, fri
fri700:00+2ssw61594100 0.0 989821
03:00+1sw71485100 0.0 992987
06:00+1sw51187100 0.0 9951002
09:00+2sw51083100 0.1 997948
12:00+4sw4881100 0.0 10001041
15:00+5sw3883100 0.1 10021127
18:00+4ssw3694100 0.1 1004513
21:00+3ssw2599100 0.1 1005305
8 may, sat
sat800:00+3sse1399100 0.0 1006129
03:00+3sse2397100 0.0 100665
06:00+3se1294100 0.0 100693
09:00+5ese3688100 0.2 1005313
12:00+3ene2597100 4.6 1003369
15:00+4ne1199100 7.3 1002133
18:00+4nnw1199100 0.6 1001107
21:00+3nw3798100 1.5 1002409
9 may, sun
sun900:00+2wnw4997100 0.3 1002563
03:00+2nnw51197100 1.1 1000632
06:00+2wnw4118796 0.1 1006638
09:00+5nw510675 0.1 1009861
12:00+8wnw595369 0.0 10111949
15:00+9wnw584387 0.0 10122322
18:00+9w4755100 0.1 10141617
21:00+4sw27785 0.1 1016158
10 may, mon
mon1000:00+3ssw21084100 0.0 1016319
03:00+4sw31183100 0.0 1017427
06:00+5sw41177100 0.0 1018423
09:00+7sw4776100 0.0 1019909
12:00+6s3990100 0.3 1019659
15:00+7ssw31294100 1.5 1019602
18:00+12wsw41587100 0.1 1018845
21:00+13sw51577100 0.3 1017792
11 may, tue
tue1100:00+12sw51783100 0.0 1019559
03:00+12sw51783100 0.0 1020626
06:00+11sw51585100 0.0 1020577
09:00+14sw51375100 0.0 1020682
12:00+17sw6115691 0.0 10211068
15:00+18sw61357100 0.0 10211141
18:00+18sw5125696 0.0 10211187
21:00+14sw396889 0.0 1022268